Regional Weather Roundup
Issued by NWS Little Rock, AR

Home | Current Version | Previous Version | Graphics & Text | Print | Product List | Glossary On
Versions: 1 2 3 4 5 6 7 8 9 10 11 12 13 14 15 16 17 18 19 20 21 22 23 24 25 26 27 28 29 30 31 32 33 34 35 36 37 38 39 40 41 42 43 44 45 46 47 48 49
000
ASUS44 KLZK 051105
RWRLZK

WEATHER ROUNDUP FOR ARKANSAS
NATIONAL WEATHER SERVICE LITTLE ROCK AR
600 AM CDT SAT SEP 05 2015

NOTE: "FAIR" INDICATES FEW OR NO CLOUDS BELOW 12,000 FEET WITH NO
SIGNIFICANT WEATHER AND/OR OBSTRUCTIONS TO VISIBILITY.

ARZ001-003-010-029-051200-
NORTHWEST ARKANSAS

CITY           SKY/WX    TMP DP  RH WIND       PRES   REMARKS
FAYETTEVILLE   CLEAR     66  66 100 CALM      30.06R FOG
FORT SMITH     PTCLDY    75  69  81 E7        30.01R
HARRISON       CLEAR     70  67  90 SE3       30.09R
BENTONVILLE    CLEAR     72  64  78 SE5       30.07R
ROGERS         CLEAR     73  68  84 SE8       30.07R
SILOAM SPGS    CLEAR     70  63  78 E3        30.04R
HIGHFILL       CLEAR     69  68  96 CALM      30.06R
SPRINGDALE     CLEAR     72  66  83 E5        30.08
$$

ARZ004-005-016-051200-
NORTH CENTRAL ARKANSAS

CITY           SKY/WX    TMP DP  RH WIND       PRES   REMARKS
BATESVILLE     CLEAR     70  68  94 W3        30.05R
FLIPPIN        CLEAR     70  63  78 CALM      30.05R
MTN HOME       CLEAR     71  69  93 E3        30.06S
$$

ARZ040-041-051200-
WEST CENTRAL ARKANSAS

CITY           SKY/WX    TMP DP  RH WIND       PRES   REMARKS
MENA           PTCLDY    72  70  94 CALM      30.05R
MOUNT IDA      CLEAR     70  68  93 CALM      30.02R
$$

ARZ009-017-025-026-028-051200-
NORTHEAST ARKANSAS

CITY           SKY/WX    TMP DP  RH WIND       PRES   REMARKS
JONESBORO      CLEAR     70  68  93 NE5       30.03R
NEWPORT        CLEAR     73  71  93 CALM      30.04R
WALNUT RIDGE   CLEAR     72  66  83 CALM      30.04S
BLYTHEVILLE    CLEAR     72  71  97 CALM      30.04R
$$

ARZ022-023-033-042-044-051200-
CENTRAL ARKANSAS

CITY           SKY/WX    TMP DP  RH WIND       PRES   REMARKS
LITTLE ROCK    CLEAR     74  70  87 CALM      30.02R
JACKSONVILLE   CLEAR     70  69  97 CALM      30.02R
SEARCY         CLEAR     70  69  97 CALM      30.05R
HOT SPRINGS    CLEAR     74  70  87 CALM      30.04R
RUSSELLVILLE   CLEAR     72  70  93 CALM      30.03R
$$

ARZ036-051200-
EAST ARKANSAS

CITY           SKY/WX    TMP DP  RH WIND       PRES   REMARKS
WEST MEMPHIS   CLEAR     72  72 100 CALM      30.02R
$$

ARZ050-053-066-070-073-051200-
SOUTHWEST ARKANSAS

CITY           SKY/WX    TMP DP  RH WIND       PRES   REMARKS
ARKADELPHIA    FAIR      72  71  96 CALM      30.02R
CAMDEN         CLEAR     72  68  88 CALM      30.01R FOG
TEXARKANA      CLEAR     73  71  93 CALM      30.01R
EL DORADO      CLEAR     70  69  97 CALM      30.01R
DE QUEEN       CLEAR     71  70  96 E3        29.99R
$$

ARZ056-057-069-051200-
SOUTHEAST ARKANSAS

CITY           SKY/WX    TMP DP  RH WIND       PRES   REMARKS
PINE BLUFF     CLEAR     73  69  87 CALM      30.01R
STUTTGART      CLEAR     72  66  83 NE5       30.02R
MONTICELLO     CLEAR     73  72  96 CALM      30.01R

$$




USA.gov is the U.S. government's official web portal to all federal, state and local government web resources and services.